Regional Weather Roundup
Issued by NWS

Home | Current Version | Previous Version | Graphics & Text | Print | Product List | Glossary On
Versions: 1 2 3 4 5 6 7 8 9 10 11 12 13 14 15 16 17 18 19 20 21 22 23 24 25 26 27 28 29 30 31 32 33 34 35 36 37 38 39 40 41 42 43 44 45 46 47 48 49 50
000
ASUS43 KLOT 010512
RWRIL

ILLINOIS REGIONAL WEATHER ROUNDUP
NATIONAL WEATHER SERVICE CHICAGO/ROMEOVILLE IL
1200 AM CDT TUE SEP 01 2015

NOTE: "FAIR" INDICATES FEW OR NO CLOUDS BELOW 12,000 FEET WITH NO
SIGNIFICANT WEATHER AND/OR OBSTRUCTIONS TO VISIBILITY.

* THESE STATIONS ARE NOT UNDER NWS QUALITY CONTROL. THEY ALSO MAY NOT
  REPORT WEATHER SUCH AS PRECIPITATION OR FOG.

ILZ001-002-007-009-015-016-024-010600-
NORTHWEST ILLINOIS

CITY           SKY/WX    TMP DP  RH WIND       PRES   REMARKS
MOLINE         CLEAR     76  70  82 S8        30.00R
STERLING*      CLEAR    N/A N/A N/A S5        30.00S
SAVANNA*       CLEAR     74  70  88 CALM      30.01R
$$

ILZ003-004-008-010-011-017-018-010600-
NORTH CENTRAL ILLINOIS

CITY           SKY/WX    TMP DP  RH WIND       PRES   REMARKS
ROCKFORD       CLEAR     72  67  84 CALM      30.04S
FREEPORT*      CLEAR     68  67  94 CALM      30.04S
ROCHELLE*      CLEAR     69  68  96 S5        30.04S FOG
DE KALB*       CLEAR     69  67  93 S6        30.05S
PERU*          CLEAR     75  70  83 S7        30.04R
$$

ILZ005-006-012>014-019>023-010600-
NORTHEAST ILLINOIS

CITY           SKY/WX    TMP DP  RH WIND       PRES   REMARKS
CHICAGO-OHARE  CLEAR     72  68  87 SE6       30.04R
CHICAGO-MIDWAY CLEAR     78  69  73 S5        30.04S HX  80
AURORA         CLEAR     69  66  90 SE3       30.05R FOG
LANSING*       CLEAR     71  68  90 CALM      30.06R
JOLIET*        PTCLDY    71  69  93 CALM      30.05R FOG
WAUKEGAN       FOG       67  66  97 CALM      30.04S VSB 1/2
DUPAGE AIRPORT CLEAR     70  67  90 CALM      30.04S
KANKAKEE*      PTCLDY    70  69  95 CALM      30.07R
WHEELING       CLEAR     69  65  86 CALM      30.05S
MORRIS*        CLEAR     71  69  91 S3        30.04R FOG
ROMEOVILLE*    CLEAR     71  68  90 S6        30.05S
NORTHERLY ISL    N/A     71  68  90 S2          N/A
$$

LMZ740>746-010600-
SOUTHERN LAKE MICHIGAN

STATION/POSITION SKY/WX   TEMP    WIND        PRES    VSBY  WAVE
                          AIR SEA DIR/SP/G                  HT/PER
                          (F)     (DEG/KT/KT) (MB)    (MI)  (FT/S)
SOUTHERN BUOY              71 70  150/  6/  8 1017.0R         0
WILMETTE HARBOR            67 59  330/  4/  4   N/A           1
HARRISON CRIB              73     170/  7/  8   N/A
BURNHAM HARBOR             73     200/  3/  3   N/A
CALUMET HARBOR             75     170/  3/  3   N/A
MICHIGAN CITY              75     120/  6/  8   N/A
MICHIGAN CITY 6N           73 72  170/  4/  6   N/A           0
ST. JOSEPH                 74 73  190/  8/  8   N/A           1
$$

ILZ025>027-034>036-040-047-049-050-058-095>099-010600-
WEST-CENTRAL ILLINOIS

CITY           SKY/WX    TMP DP  RH WIND       PRES   REMARKS
QUINCY         CLEAR     76  72  87 S7        30.02R
GALESBURG*     PTCLDY    73  70  89 SE5       30.02S
MACOMB*        CLEAR     74  71  90 S6        30.04R
JACKSONVILLE*  CLEAR     79  73  82 S9        30.04R HX  82
PITTSFIELD*    CLEAR     75  71  87 S3        30.04S
$$

ILZ028>032-037-038-041>044-048-051>054-059>061-010600-
CENTRAL ILLINOIS

CITY           SKY/WX    TMP DP  RH WIND       PRES   REMARKS
PONTIAC        PTCLDY    76  73  90 S5        30.06R
BLOOMINGTON    CLEAR     75  73  93 S9        30.07S
DECATUR        CLEAR     77  70  79 S8        30.06S
PEORIA         CLEAR     77  70  79 S7        30.04R
LACON*         CLEAR     74  70  87 S5        30.02S
LINCOLN*       CLEAR     76  70  84 S6        30.05R
SPRINGFIELD    CLEAR     78  71  79 S10       30.04S HX  80
TAYLORVILLE    CLEAR     72  70  94 S6        30.06R
$$

ILZ033-039-045-046-055>057-062-063-010600-
EAST-CENTRAL ILLINOIS

CITY           SKY/WX    TMP DP  RH WIND       PRES   REMARKS
CHAMPAIGN      CLEAR     72  68  87 S5        30.08R
RANTOUL*       PTCLDY    73  70  89 CALM      30.07S
MATTOON        HAZE      75  67  76 S6        30.07R VSB 1/2
PARIS*         CLEAR     69  67  96 S3        30.09S
$$

ILZ079-100>102-010600-
SOUTHWEST ILLINOIS

CITY           SKY/WX    TMP DP  RH WIND       PRES   REMARKS
ALTON          CLEAR     73  70  90 S6        30.06R
BELLEVILLE     CLEAR     74  74  99 CALM      30.05S
CAHOKIA*       CLEAR     75  71  87 CALM      30.05S
SPARTA*        CLEAR     75  69  82 S5        30.08S
$$

ILZ064>066-069>071-074>076-080>082-084>086-088>090-092>094-010600-
SOUTH-CENTRAL ILLINOIS

CITY           SKY/WX    TMP DP  RH WIND       PRES   REMARKS
CARBONDALE     CLEAR     72  68  87 CALM      30.07S
CAIRO*         CLEAR     68  68 100 CALM      30.08R
EFFINGHAM*     CLEAR     72  67  84 SE3       30.09S
MARION         CLEAR     73  70  88 CALM      30.09R
MT. VERNON     PTCLDY    72  66  83 CALM      30.09S
SALEM*         CLEAR     75  70  83 SE3       30.08S
METROPOLIS*    FOG       68  68 100 CALM      30.09S VSB 3/4
$$

ILZ067-068-072-073-078-083-087-091-010600-
SOUTHEAST ILLINOIS

CITY           SKY/WX    TMP DP  RH WIND       PRES   REMARKS
LAWRENCEVILLE  MOCLDY    70  67  90 S3        30.09S
FLORA*         CLEAR     69  67  92 CALM      30.08S
FAIRFIELD*     CLEAR     71  69  92 CALM      30.08R
HARRISBURG*    CLEAR     70  69  96 CALM      30.09S
ROBINSON*      CLEAR     67  65  94 S3        30.10R
CARMI*         CLEAR     67  66  98 CALM      30.08S
$$

ABBREVIATIONS USED IN REMARKS
   TC - TEMPERATURE IN CELSIUS
  WCI - WIND CHILL INDEX
   HX - HEAT INDEX
  VSB - VISIBILITY
$$




USA.gov is the U.S. government's official web portal to all federal, state and local government web resources and services.